Regional Weather Roundup
Issued by NWS Austin/San Antonio, TX

Current Version | Previous Version | Text Only | Print | Product List | Glossary On
Versions: 1 2 3 4 5 6 7 8 9 10 11 12 13 14 15 16 17 18 19 20 21 22 23 24 25 26 27 28 29 30 31 32 33 34 35 36 37 38 39 40 41 42 43 44 45 46 47 48 49 50
460
ASUS44 KEWX 131410
RWREWX
SOUTH TEXAS REGIONAL WEATHER ROUNDUP
NATIONAL WEATHER SERVICE AUSTIN/SAN ANTONIO TX
900 AM CDT SUN JUN 13 2021

NOTE: "FAIR" INDICATED FEW OR NO CLOUDS BELOW 12,000 FEET WITH NO
SIGNIFICANT WEATHER AND/OR OBSTRUCTIONS TO VISIBILITY.

* - THESE STATIONS ARE NOT NWS OR FAA STATIONS...AND ARE NOT SUBJECT
    TO NWS AND FAA QUALITY CONTROL.

TXZ171-172-183>190-131500-
TEXAS HILL COUNTRY AND EDWARDS PLATEAU

CITY           SKY/WX    TMP DP  RH WIND       PRES   REMARKS
JUNCTION       FAIR      77  70  79 SE3       30.08R
*LLANO         FAIR      81  72  74 CALM      30.05R
BURNET         FAIR      79  72  79 SE3       30.07R
*HORSESHOE BAY FAIR      80  71  75 MISG      30.05S
*LAGO VISTA    FAIR      80  73  77 W5        30.06R
*KERRVILLE     FAIR      76  73  87 CALM      30.07R
*FREDERICKSBRG FAIR      76  73  91 NW5       30.09R
*ROCKSPRINGS     N/A     77  70  78 MISG      30.13R
*BOERNE        FAIR      75  75 100 S5        30.06R
*CASTROVILLE   CLOUDY    78  76  92 CALM      30.05R
HONDO          FAIR      79  74  84 SE5       30.03R
*UVALDE        FAIR      77  77 100 E3        30.04R
DEL RIO        FAIR      83  73  72 SE10      30.00R
*LAUGHLIN AFB  FAIR      81  71  71 SE9       30.00R
*SPOFFORD      FAIR      80  73  79 SE6       29.96R
*EAGLE PASS    SUNNY     81  72  74 VRB6      30.00R
CARRIZO SPRGS  FAIR     N/A N/A N/A SE3       30.00R
$$

TXZ173-191>194-202-209-217>225-228-131500-
CENTRAL AND SOUTH CENTRAL TEXAS

CITY           SKY/WX    TMP DP  RH WIND       PRES   REMARKS
GEORGETOWN     FAIR      81  73  76 W5        30.05R
*TAYLOR        FAIR      82  77  84 W6        30.02R
AUSTIN/BERGSTM FAIR      80  74  81 W3        30.02R
AUSTIN/MABRY   FAIR      82  72  71 CALM      30.03R
*PFLUGERVILLE  FAIR      81  75  83 CALM      30.02R
SAN MARCOS     FAIR      80  77  90 SW6       30.03R
NEW BRAUNFELS  PTSUNNY   79  74  84 W5        30.01R
*RANDOLPH AFB  CLOUDY    76  76  99 S3        30.02R
*SEGUIN        CLOUDY    77  74  89 W7        30.06R
SAN ANTONIO    PTSUNNY   78  73  84 SE6       30.04R
STINSON FIELD  CLOUDY    81  73  76 S3        30.01R
*KELLY FIELD   PTSUNNY   78  74  87 CALM      30.02R
*PLEASANTON    FAIR      80  74  83 SE3       30.03R
*KENEDY        FAIR      78  74  85 W3        30.03R
*LA GRANGE     FAIR      82  80  92 W3        29.99S HX  94
*GIDDINGS      FAIR      81  74  80 W5        30.02S
*GONZALES      FAIR      80  76  89 CALM      30.01S
$$

TXZ163>164-176>182-195>201-210>213-226-227-235-131500-
SOUTHEAST TEXAS

CITY           SKY/WX    TMP DP  RH WIND       PRES   REMARKS
COLLEGE STN    FAIR      83  75  77 W5        29.99F HX  90
*BRYAN         FAIR      82  75  79 W6        30.01S
*CALDWELL      FAIR      83  75  78 W5        30.01S HX  90
*CROCKETT      FAIR      82  79  89 SW6       29.98F HX  93
*BRENHAM       FAIR      82  77  83 W5        30.00F HX  91
HUNTSVILLE     FAIR      84  79  85 W7        30.00R HX  96
CONROE         FAIR      84  74  71 W7        30.00R HX  91
HOUSTON BUSH   FAIR      86  75  69 W8        29.99R HX  95
HOUSTON HOBBY  PTSUNNY   85  75  72 W9        29.99R HX  93
*HOUSTON SW AP FAIR      83  79  90 NW5       30.01R HX  94
PEARLAND       FAIR      83  77  82 NW9       30.00S HX  92
HOUSTON HOOKS  FAIR      85  75  72 NW6       29.99S HX  93
ELLINGTON FLD  NOT AVBL
SUGAR LAND     FAIR      83  77  82 W6        29.99R HX  92
*HOUSTON EXEC  FAIR      82  79  89 NW6       30.01S HX  93
*CLEVELAND MUN CLOUDY    84  76  79 NW3       30.00S HX  93
*WHARTON       FAIR      78  76  93 NW3       30.01S
*COLUMBUS      PTSUNNY   78  76  94 NW3       30.02S
*EAGLE LAKE    CLOUDY    80  76  88 W6        30.00S
$$

TXZ214>216-236>238-131500-
THE UPPER TEXAS COAST

CITY           SKY/WX    TMP DP  RH WIND       PRES   REMARKS
*ORANGE        FAIR      85  75  72 W7        29.99F HX  94
PORT ARTHUR    FAIR      84  77  79 W9        29.97S HX  94
GALVESTON      FAIR      87  77  72 W9        29.99R HX  99
ANGLETON       FAIR      82  78  88 NW6       29.99R HX  91
*BAY CITY      NOT AVBL
PALACIOS       FAIR      79  78  97 CALM      29.99R
$$

TXZ229>234-239>247-131500-
TEXAS COASTAL BEND AND RIO GRANDE PLAINS

CITY           SKY/WX    TMP DP  RH WIND       PRES   REMARKS
VICTORIA       CLOUDY    78  76  93 NW5       30.01R
*BEEVILLE      CLOUDY    77  77 100 CALM      30.01R
ROCKPORT       FAIR      83  78  85 N7        29.99R HX  93
*PORT ARANSAS  FAIR      83  75  77 NW3       30.01R HX  91
*PORT LAVACA   CLOUDY    79  76  90 NW6       30.01R FOG
*INGLESIDE     FAIR      82  78  88 N3        29.98S HX  91
CORPUS CHRISTI PTSUNNY   82  77  84 CALM      29.99R HX  90
CORPUS NAS     FAIR      82  76  81 NW3       29.98S
*ROBSTOWN      FAIR      80  79  95 CALM      30.00R
ALICE          CLOUDY    77  76  96 CALM      30.00R
KINGSVILLE NAS FOG       78  76  93 NE5       29.99R VSB 1/2
COTULLA        NOT AVBL
LAREDO         FAIR      81  74  79 SE6       29.99R
$$

TXZ248>255-131500-
DEEP SOUTH TEXAS

CITY           SKY/WX    TMP DP  RH WIND       PRES   REMARKS
BROWNSVILLE    FAIR      84  75  74 CALM      29.96R HX  92
PORT ISABEL    FAIR      83  76  79 CALM      29.97R HX  91
HARLINGEN      FAIR      83  80  91 CALM      29.97R HX  95
*HEBBRONVILLE  CLOUDY    74  69  84 S3        30.02R
MCALLEN        FAIR      81  75  82 E3        29.97R
*WESLACO       FAIR      81  76  85 CALM      29.97R
FALFURRIAS     FAIR      74  74 100 NE3       29.99R
EDINBURG       FAIR      80  77  92 NE3       29.99R
*ZAPATA        FAIR      83  75  75 SE6       29.99R HX  90
$$

TXZ213>215-236>238-242>244-246-247-251-254-255-131500-
CMAN STATIONS

STATION/POSITION TIME  TEMP    WIND        PRES    WAVE
                       AIR SEA DIR/SP/G            HT/PER
                 (UTC) (F)     (DEG/KT/KT) (MB)    (FT/S)
NORTH JETTY/GLS  1330   83 81  310/ 10/ 12 1014.3
EAGLE POINT      1330   83 87  300/  5/  7 1014.9
MORGANS POINT    1330   83 84  330/  9/ 11 1015.4
MISSION/ARANSAS  1300   79     340/  6     1016.0
PORT O`CONNOR    1330   80 87  290/  3/  4 1015.2
PORT ARANSAS     1400   82 84  170/  3/  3 1015.4
MALAQUITE BEACH  1330   90      20/  2/  3   N/A
BAFFIN BAY       1330   79 86  330/  7/  8 1014.9
PORT ISABEL      1330   83 82   50/  2/  2 1015.7
$$




USA.gov is the U.S. government's official web portal to all federal, state and local government web resources and services.